TimeMST,TemperatureF,Dew PointF,Humidity,Sea Level PressureIn,VisibilityMPH,Wind Direction,Wind SpeedMPH,Gust SpeedMPH,PrecipitationIn,Events,Conditions,WindDirDegrees,DateUTC
12:53 AM,28.9,16.0,58,29.96,10.0,North,4.6,-,N/A,,Clear,350,2012-12-13 07:53:00
1:53 AM,27.0,15.1,61,29.97,10.0,Calm,Calm,-,N/A,,Clear,0,2012-12-13 08:53:00
2:53 AM,27.0,15.1,61,29.99,10.0,North,5.8,-,N/A,,Clear,360,2012-12-13 09:53:00
3:53 AM,30.9,15.1,52,29.98,10.0,Calm,Calm,-,N/A,,Clear,0,2012-12-13 10:53:00
4:53 AM,28.0,16.0,61,30.00,10.0,Calm,Calm,-,N/A,,Clear,0,2012-12-13 11:53:00
5:53 AM,27.0,16.0,63,30.03,10.0,Calm,Calm,-,N/A,,Clear,0,2012-12-13 12:53:00
6:53 AM,30.9,16.0,54,30.01,10.0,ESE,10.4,-,N/A,,Clear,120,2012-12-13 13:53:00
7:53 AM,37.0,16.0,42,30.00,10.0,East,12.7,-,N/A,,Clear,100,2012-12-13 14:53:00
8:53 AM,37.9,16.0,41,30.00,10.0,SE,3.5,-,N/A,,Clear,130,2012-12-13 15:53:00
9:53 AM,44.1,15.1,31,29.99,10.0,ESE,9.2,-,N/A,,Clear,110,2012-12-13 16:53:00
10:53 AM,48.9,15.1,26,29.96,10.0,SE,9.2,-,N/A,,Clear,140,2012-12-13 17:53:00
11:53 AM,51.1,15.1,24,29.94,10.0,Variable,4.6,-,N/A,,Clear,0,2012-12-13 18:53:00
12:53 PM,55.9,16.0,21,29.88,10.0,South,16.1,21.9,N/A,,Clear,170,2012-12-13 19:53:00
1:53 PM,55.0,15.1,21,29.86,10.0,South,13.8,19.6,N/A,,Clear,180,2012-12-13 20:53:00
2:53 PM,53.1,18.0,25,29.86,10.0,WNW,9.2,-,N/A,,Clear,290,2012-12-13 21:53:00
3:53 PM,48.2,17.6,30,29.89,10.0,WNW,5.8,-,N/A,,Clear,290,2012-12-13 22:53:00
5:53 PM,42.8,14.0,31,29.90,10.0,West,4.6,-,N/A,,Clear,270,2012-12-14 00:53:00
6:53 PM,37.9,12.9,36,29.90,10.0,ESE,5.8,-,N/A,,Clear,110,2012-12-14 01:53:00
7:53 PM,37.9,15.1,39,29.88,10.0,East,4.6,-,N/A,,Clear,80,2012-12-14 02:53:00
8:53 PM,36.0,15.1,43,29.88,10.0,ENE,5.8,-,N/A,,Overcast,70,2012-12-14 03:53:00
9:53 PM,34.0,16.0,48,29.86,10.0,East,6.9,-,N/A,,Partly Cloudy,100,2012-12-14 04:53:00
10:53 PM,39.2,15.8,39,29.87,10.0,East,12.7,-,N/A,,Scattered Clouds,100,2012-12-14 05:53:00
11:53 PM,37.0,17.1,44,29.78,10.0,ESE,9.2,-,N/A,,Clear,110,2012-12-14 06:53:00